Le nostre stazioni meteo in Italia

Pubblicità
Il mio iltempo24.it
Marina Di Ginosa, Italia (16325): Temperatura & dewpoint: 08.11.2019 23:00:00 - 14.11.2019 23:00:00 (CET)Marina Di Ginosa, Italia (16325): velocità del vento: 08.11.2019 23:00:00 - 14.11.2019 23:00:00 (CET)Marina Di Ginosa, Italia (16325): direzione del vento: 08.11.2019 23:00:00 - 14.11.2019 23:00:00 (CET)Marina Di Ginosa, Italia (16325): reduced air pressure: 08.11.2019 23:00:00 - 14.11.2019 23:00:00 (CET)Marina Di Ginosa, Italia (16325): visibility: 08.11.2019 23:00:00 - 14.11.2019 23:00:00 (CET)
Data & Tempo tt [°C] td [°C] ff [km/h] ff [kn] dd ppp [hPa] vv [km]
14.11.2019 23:00:00 - - - - - - -
14.11.2019 22:00:00 - - - - - - -
14.11.2019 21:00:00 - - - - - - -
14.11.2019 20:00:00 - - - - - - -
14.11.2019 19:00:00 15,2 11,2 13 7 SSE 1008,6 20
14.11.2019 18:00:00 15,0 11,0 9 5 SSE - 10
14.11.2019 17:00:00 18,0 12,0 8 4 SSE - 10
14.11.2019 16:00:00 18,8 11,6 11 6 S 1008,4 20
14.11.2019 15:00:00 19,0 11,0 13 7 SE - 10
14.11.2019 14:00:00 19,0 11,0 9 5 SE - 10
14.11.2019 13:00:00 18,8 10,4 5 3 ESE 1008,5 18
14.11.2019 12:00:00 18,0 10,0 5 3 SSE - 10
14.11.2019 11:00:00 17,0 9,0 4 2 - - 10
14.11.2019 10:00:00 13,8 8,4 11 6 NO 1009,3 18
14.11.2019 09:00:00 12,0 10,0 4 2 - - 10
14.11.2019 08:00:00 10,0 8,0 11 6 NO - 10
14.11.2019 07:00:00 8,8 7,4 8 4 N 1008,3 10
14.11.2019 06:00:00 - - - - - - -
14.11.2019 05:00:00 - - - - - - -
14.11.2019 04:00:00 - - - - - - -
14.11.2019 03:00:00 - - - - - - -
14.11.2019 02:00:00 - - - - - - -
14.11.2019 01:00:00 - - - - - - -
14.11.2019 00:00:00 - - - - - - -
13.11.2019 23:00:00 - - - - - - -
13.11.2019 22:00:00 - - - - - - -
13.11.2019 21:00:00 - - - - - - -
13.11.2019 20:00:00 - - - - - - -
13.11.2019 19:00:00 17,0 10,4 11 6 OSO 1005,9 10
13.11.2019 18:00:00 18,0 11,0 11 6 SO - 10
13.11.2019 17:00:00 19,0 12,0 11 6 OSO - 10
13.11.2019 16:00:00 19,8 11,8 15 8 SO 1003,7 15
13.11.2019 15:00:00 20,0 12,0 13 7 OSO - 10
13.11.2019 14:00:00 21,0 15,0 13 7 S - 10
13.11.2019 13:00:00 20,6 14,7 16 9 S 1001,9 15
13.11.2019 12:00:00 20,0 14,0 15 8 S - 10
13.11.2019 11:00:00 20,0 15,0 16 9 SSO - 10
13.11.2019 10:00:00 19,0 15,5 21 11 SSO 1000,2 15
13.11.2019 09:00:00 18,0 15,0 31 17 SSO - 10
13.11.2019 08:00:00 18,0 15,0 34 18 SSO - 10
13.11.2019 07:00:00 18,2 14,7 37 20 SSO 997,6 10
13.11.2019 06:00:00 - - - - - - -
13.11.2019 05:00:00 - - - - - - -
13.11.2019 04:00:00 - - - - - - -
13.11.2019 03:00:00 - - - - - - -
13.11.2019 02:00:00 - - - - - - -
13.11.2019 01:00:00 - - - - - - -
13.11.2019 00:00:00 - - - - - - -
12.11.2019 23:00:00 - - - - - - -
12.11.2019 22:00:00 - - - - - - -
12.11.2019 21:00:00 - - - - - - -
12.11.2019 20:00:00 - - - - - - -
12.11.2019 19:00:00 19,4 13,8 34 18 S 999,8 8
12.11.2019 18:00:00 19,0 14,0 54 29 SSE - 8
12.11.2019 17:00:00 20,0 13,0 55 30 SSE - 8
12.11.2019 16:00:00 20,0 13,0 63 34 SSE 998,8 8
12.11.2019 15:00:00 20,0 13,0 44 24 SSE - 8
12.11.2019 14:00:00 20,0 13,0 61 33 SSE - 8
12.11.2019 13:00:00 20,0 15,0 74 40 SE 997,3 8
12.11.2019 12:00:00 20,0 14,0 41 22 SSE - 6
12.11.2019 11:00:00 20,0 15,0 28 15 S - 4,0
12.11.2019 10:00:00 21,0 15,8 54 29 SSE 996,2 2,0
12.11.2019 09:00:00 20,0 16,0 63 34 SSE - 2,0
12.11.2019 08:00:00 20,0 18,0 68 37 ESE - 3,0
12.11.2019 07:00:00 - 16,4 152 82 N 997,6 2,5
12.11.2019 06:00:00 - - - - - - -
12.11.2019 05:00:00 - - - - - - -
12.11.2019 04:00:00 - - - - - - -
12.11.2019 03:00:00 - - - - - - -
12.11.2019 02:00:00 18,0 16,0 - - - - 6
12.11.2019 01:00:00 - - - - - - -
12.11.2019 00:00:00 - - - - - - -
11.11.2019 23:00:00 - - - - - - -
11.11.2019 22:00:00 - - - - - - -
11.11.2019 21:00:00 - - - - - - -
11.11.2019 20:00:00 - - - - - - -
11.11.2019 19:00:00 20,0 13,9 42 23 SE 1010,1 20
11.11.2019 18:00:00 19,0 14,0 48 26 SE - 10
11.11.2019 17:00:00 17,0 15,0 41 22 S - 10
11.11.2019 16:00:00 18,6 15,5 34 18 SE 1010,5 20
11.11.2019 15:00:00 21,0 14,0 28 15 SE - 10
11.11.2019 14:00:00 21,0 14,0 28 15 SE - 10
11.11.2019 13:00:00 21,2 15,5 13 7 SE 1012,2 20
11.11.2019 12:00:00 20,0 14,0 9 5 SE - 10
11.11.2019 11:00:00 20,0 13,0 4 2 - - 10
11.11.2019 10:00:00 15,2 11,6 8 4 O 1014,2 20
11.11.2019 09:00:00 13,0 11,0 9 5 ONO - 10
11.11.2019 08:00:00 11,0 9,0 13 7 NO - 10
11.11.2019 07:00:00 9,8 8,9 13 7 ONO 1013,5 20
11.11.2019 06:00:00 - - - - - - -
11.11.2019 05:00:00 - - - - - - -
11.11.2019 04:00:00 - - - - - - -
11.11.2019 03:00:00 - - - - - - -
11.11.2019 02:00:00 - - - - - - -
11.11.2019 01:00:00 - - - - - - -
11.11.2019 00:00:00 - - - - - - -
10.11.2019 23:00:00 - - - - - - -
10.11.2019 22:00:00 - - - - - - -
10.11.2019 21:00:00 - - - - - - -
10.11.2019 20:00:00 - - - - - - -
10.11.2019 19:00:00 14,2 10,8 8 4 O 1012,4 40
10.11.2019 18:00:00 16,0 10,0 11 6 OSO - 10
10.11.2019 17:00:00 17,0 10,0 11 6 SO - 10
10.11.2019 16:00:00 18,8 10,9 9 5 SSO 1011,2 40
10.11.2019 15:00:00 20,0 10,0 11 6 SSE - 10
10.11.2019 14:00:00 20,0 11,0 13 7 SSE - 10
10.11.2019 13:00:00 20,0 10,4 13 7 SSE 1010,0 40
10.11.2019 12:00:00 20,0 8,0 13 7 - - 10
10.11.2019 11:00:00 19,0 8,0 13 7 SO - 10
10.11.2019 10:00:00 16,2 8,4 15 8 OSO 1009,6 20
10.11.2019 09:00:00 14,0 9,0 13 7 O - 10
10.11.2019 08:00:00 12,0 9,0 4 2 - - 10
10.11.2019 07:00:00 11,0 8,7 16 9 ONO 1008,4 20
10.11.2019 06:00:00 - - - - - - -
10.11.2019 05:00:00 - - - - - - -
10.11.2019 04:00:00 - - - - - - -
10.11.2019 03:00:00 - - - - - - -
10.11.2019 02:00:00 - - - - - - -
10.11.2019 01:00:00 - - - - - - -
10.11.2019 00:00:00 - - - - - - -
09.11.2019 23:00:00 - - - - - - -
09.11.2019 22:00:00 - - - - - - -
09.11.2019 21:00:00 - - - - - - -
09.11.2019 20:00:00 - - - - - - -
09.11.2019 19:00:00 15,0 13,9 11 6 NO 1007,8 20
09.11.2019 18:00:00 15,0 14,0 21 11 OSO - 10
09.11.2019 17:00:00 20,0 12,0 24 13 SSE - 10
09.11.2019 16:00:00 21,0 13,7 26 14 S 1008,3 20
09.11.2019 15:00:00 22,0 8,0 34 18 SSO - 10
09.11.2019 14:00:00 22,0 14,0 24 13 S - 10
09.11.2019 13:00:00 22,0 14,9 21 11 SSO 1009,9 20
09.11.2019 12:00:00 22,0 12,0 11 6 SSO - 10
09.11.2019 11:00:00 22,0 13,0 8 4 S - 10
09.11.2019 10:00:00 19,2 12,2 11 6 SO 1011,0 20
09.11.2019 09:00:00 17,0 13,0 5 3 O - 10
09.11.2019 08:00:00 14,0 12,0 5 3 NO - 10
09.11.2019 07:00:00 13,0 11,7 13 7 NE 1010,4 20
09.11.2019 06:00:00 - - - - - - -
09.11.2019 05:00:00 - - - - - - -
09.11.2019 04:00:00 - - - - - - -
09.11.2019 03:00:00 - - - - - - -
09.11.2019 02:00:00 - - - - - - -
09.11.2019 01:00:00 - - - - - - -
09.11.2019 00:00:00 - - - - - - -
08.11.2019 23:00:00 - - - - - - -

tt = Temperatura
td = dewpoint
ff = velocità del vento
dd = direzione del vento
ppp = reduced air pressure
vv = visibility

Stazioni seguenti

WeatherPro
AMSI
MeteoEarth